Regional Weather Roundup
Issued by NWS Sterling, VA

Home | Current Version | Previous Version | Graphics & Text | Print | Product List | Glossary On
Versions: 1 2 3 4 5 6 7 8 9 10 11 12 13 14 15 16 17 18 19 20 21 22 23 24 25 26 27 28 29 30 31 32 33 34 35 36 37 38 39 40 41 42 43 44 45 46 47 48 49 50
958
ASUS41 KLWX 132110
RWRLWX

REGIONAL WEATHER ROUNDUP
NATIONAL WEATHER SERVICE BALTIMORE MD/WASHINGTON DC
400 PM EST WED DEC 13 2017

Note: "FAIR" indicates few or no clouds below 12,000 feet
with no significant weather and/or obstructions to visibility.
 TC=TEMPERATURE CELSIUS

 * =Non NWS site. Station does not report precipitation (e.g. rain,
    snow, etc.), thunder, or fog.

DCZ001-MDZ009-015-VAZ040>042-051-053>054-132200-
WASHINGTON METRO

CITY           SKY/WX    TMP DP  RH WIND       PRES   REMARKS
WASHINGTON NAT PTCLDY    35   6  29 SW10      29.78F WCI  27
DULLES         MOCLDY    33   7  33 SW8       29.75F WCI  26
ANDREWS AFB    CLEAR     33   6  32 SW10      29.75F WCI  24
FT BELVOIR     CLEAR     34   5  29 W6        29.77F
QUANTICO       PTCLDY    35   6  29 W9        29.80R WCI  28
COLLEGE PARK*  CLEAR     32   6  32 SW8       29.76F WCI  25
LEESBURG*      CLOUDY    34  12  40 W5        29.75F
MANASSAS*      CLOUDY    34   7  32 SW9       29.77S WCI  27
GAITHERSBURG*  CLEAR     30  10  43 W10       29.74F WCI  21

$$

MDZ006>007-011-014-132200-
BALTIMORE METRO

CITY           SKY/WX    TMP DP  RH WIND       PRES   REMARKS
BWI AIRPORT    PTCLDY    31   7  36 W10       29.75S WCI  22
MD SCIENCE CTR   N/A     33   4  29 MISG      29.75S
MARTIN STATE   PTCLDY    32   7  34 W15G24    29.77F WCI  22
ANNAPOLIS      CLEAR     33  11  39 W6G20     29.76F
FORT MEADE*    CLEAR     32   7  34 W13G18    29.78F WCI  22

$$

MDZ012-015-019>023-132200-
MARYLAND EASTERN SHORE

CITY           SKY/WX    TMP DP  RH WIND       PRES   REMARKS
OCEAN CITY     CLEAR     31   9  39 W12G24    29.79S WCI  22
SALISBURY      PTCLDY    31  10  41 W15       29.78F WCI  20
BAY BRIDGE AP* CLEAR     32   7  34 MISG      29.76F
CAMBRIDGE*     CLEAR     32   7  34 VRB7G16   29.78F
EASTON*        PTCLDY    32   7  34 W12       29.80F WCI  23

$$

MDZ017>025-132200-
SOUTHERN MARYLAND

CITY           SKY/WX    TMP DP  RH WIND       PRES   REMARKS
PATUXENT RIVER MOCLDY    33   8  35 SW12      29.79F WCI  24
ST INIGOES     CLEAR     34  11  38 W14       29.79F WCI  25
LEONARDTOWN*   CLEAR     32   9  37 SW8G18    29.80F WCI  25

$$

MDZ003>005-132200-
NORTH CENTRAL MARYLAND

CITY           SKY/WX    TMP DP  RH WIND       PRES   REMARKS
FREDERICK*     CLEAR     30   0  27 W13       29.78S WCI  20
HAGERSTOWN APT CLEAR     29   7  39 W7        29.71S
WESTMINSTER*   CLEAR     28   7  40 W14       29.71R WCI  17

$$

MDZ501>502-132200-
WESTERN MARYLAND

CITY           SKY/WX    TMP DP  RH WIND       PRES   REMARKS
OAKLAND*       PTCLDY    18   9  68 SW7       29.53F
CUMBERLAND*    PTCLDY    32   9  37 SW6       29.74F

$$

VAZ025>031-132200-
SHENANDOAH VALLEY

CITY           SKY/WX    TMP DP  RH WIND       PRES   REMARKS
WINCHESTER*    CLOUDY    32   9  37 S6        29.72S
FRONT ROYAL*   CLOUDY    34   9  35 SW7       29.71R
LURAY*         PTCLDY    34  10  37 S6        29.71S
NEW MARKET*    MOCLDY    35   8  32 S6        29.70S
STAUNTON*      CLOUDY    33   9  36 SW12G23   29.71F WCI  24
WAYNESBORO*    CLOUDY    33   8  35 SW10G20   29.70F WCI  25

$$

WVZ021-048>050-054>055-132200-
EASTERN WEST VIRGINIA PANHANDLE

CITY           SKY/WX    TMP DP  RH WIND       PRES   REMARKS
MARTINSBURG    CLEAR     30   8  39 W8        29.72S WCI  22
PETERSBURG*    CLOUDY    33  13  44 S5        29.69F

$$

VAZ036>039-050-132200-
CENTRAL FOOTHILLS

CITY           SKY/WX    TMP DP  RH WIND       PRES   REMARKS
CHARLOTTESVILL CLOUDY    37   7  28 SW8G20    29.74S
CULPEPER*      MOCLDY    35   4  28 S7        29.77S
ORANGE*        CLOUDY    32   7  34 SW5       29.76F
GORDONSVILLE*  PTCLDY    35   9  33 SW8       29.75S WCI  28
WARRENTON*     MOCLDY    34   1  24 SW7       29.75F

$$

VAZ055>057-132200-
NORTH AND CENTRAL PIEDMONT

CITY           SKY/WX    TMP DP  RH WIND       PRES   REMARKS
FREDERICKSBRG* CLEAR     35  10  35 SW8       29.78S WCI  28
STAFFORD*      CLEAR     32   5  32 SW5       29.82R

$$

NCZ024-NYZ072-PAZ021-071-VAZ022-071-132200-
OTHER REGIONAL OBSERVATIONS

CITY           SKY/WX    TMP DP  RH WIND       PRES   REMARKS
NEW YORK CITY  CLEAR     30   4  33 W12G26    29.62R WCI  20
PHILADELPHIA   PTCLDY    30   3  31 W18G31    29.72S WCI  18
PITTSBURGH     LGT SNOW  22  18  85 S8        29.61F VSB 1   WCI  12
ROANOKE        MOCLDY    39  13  34 SW7       29.75F
RICHMOND       MOCLDY    38   8  29 SW13      29.81F
RALEIGH        PTCLDY    43  11  27 SW13      29.85F

$$

ANZ530>537-132200-
MARINE OBSERVATIONS

STATION/POSITION TIME  TEMP    WIND        PRES
                       AIR SEA DIR/SP/G
                 (UTC) (F)     (DEG/KT/KT) (MB)
THOMAS PT LIGHT  2100   33 45  260/ 13/ 17   N/A
BALT KEY BRIDGE  2042   31     270/ 11/ 14 1007.6F
COVE POINT       2042   33     270/ 13/ 17 1009.0F
LEWISETTA        2042   34 41  270/ 12/ 16 1009.0F
SOLOMONS ISLAND  2036   35 47  250/ 12/ 16 1008.3F
PINEY POINT      2036          270/ 12/ 15   N/A

$$





USA.gov is the U.S. government's official web portal to all federal, state and local government web resources and services.